Weather Roundup
Issued by NWS Chicago, IL

Home | Current Version | Previous Version | Graphics & Text | Print | Product List | Glossary On
Versions: 1 2 3 4 5 6 7 8 9 10 11 12 13 14 15 16 17 18 19 20 21 22 23 24 25 26 27 28 29 30 31 32 33 34 35 36 37 38 39 40 41 42 43 44 45 46 47 48 49 50
000
NZUS59 KLOT 212206
HRRLOT

CHICAGO AREA WEATHER ROUNDUP
NATIONAL WEATHER SERVICE CHICAGO/ROMEOVILLE IL
500 PM CDT SUN SEP 21 2014

NOTE: "FAIR" INDICATES FEW OR NO CLOUDS BELOW 12,000 FEET WITH NO
SIGNIFICANT WEATHER AND/OR OBSTRUCTIONS TO VISIBILITY.

* THESE STATIONS ARE NOT UNDER NWS QUALITY CONTROL. THEY ALSO MAY NOT
  REPORT WEATHER SUCH AS PRECIPITATION OR FOG.

ILZ005-006-012>014-019>023-212300-
NORTHEAST ILLINOIS

CITY           SKY/WX    TMP DP  RH WIND       PRES   REMARKS
OHARE          PTSUNNY   65  49  56 NE10      29.99R
MIDWAY         PTSUNNY   64  52  64 NE15      29.98R
AURORA         MOSUNNY   67  49  52 NW17G23   30.00R
LANSING*       CLOUDY    61  52  72 N8G16     29.99R
JOLIET*        MOSUNNY   67  48  49 NW8       29.99R
WAUKEGAN       CLOUDY    57  50  77 N13G18    29.99R
DUPAGE AIRPORT PTSUNNY   65  50  58 NW13      29.99R
WHEELING       PTSUNNY   61  50  67 NE13      30.00R
KANKAKEE*      PTSUNNY   67  51  56 W10G16    29.99S
MORRIS*        PTSUNNY   67  51  54 NW7G17    30.00R
LEWIS AIRPORT* CLOUDY    67  49  54 NW14      29.99R
NORTHERLY IS     N/A     61  52  72 N12         N/A
$$

WIZ051-052-058>065-066-070>072-212300-
SOUTHEAST WISCONSIN

CITY           SKY/WX    TMP DP  RH WIND       PRES   REMARKS
MILWAUKEE      PTSUNNY   59  42  53 N18G30    30.01R
KENOSHA*       PTSUNNY   62  48  60 N13G23    30.00R
RACINE*        PTSUNNY   61  47  59 N16G23    30.02R
BURLINGTON     MOSUNNY   61  43  51 NW14G20   30.01R
WAUKESHA       MOSUNNY   57  43  58 NW16G24   30.03R
WEST BEND      MOSUNNY   55  41  58 N9G22     30.03R
$$

INZ001>003-010>013-019-020-212300-
NORTHWEST INDIANA

CITY           SKY/WX    TMP DP  RH WIND       PRES   REMARKS
GARY*          PTSUNNY   63  52  67 N12G23    29.99R
MICHIGAN CITY* NOT AVBL
RENSSELAER*    NOT AVBL
VALPARAISO     CLOUDY    60  49  66 N14       29.99R
$$

LMZ740>746-212300-
SOUTHERN LAKE MICHIGAN

STATION/POSITION TIME  SKY/WX   TEMP WIND        PRES    VSBY
                                AIR  DIR/SP/G
                 (UTC)          (F)  (DEG/KT/KT) (MB)    (MI)
HARRISON CRIB    2200            59  360/ 18/ 20   N/A
BURNHAM HARBOR   2200            60  360/ 15/ 17   N/A
CALUMET HARBOR   2200            61  350/ 12/ 17 1014.4R
BURNS HARBOR     NOT AVBL
MICHIGAN CITY    2200            59  350/ 26/ 32   N/A
$$

ABBREVIATIONS USED IN REMARKS
   TC - TEMPERATURE IN CELSIUS
  WCI - WIND CHILL INDEX
   HX - HEAT INDEX
  VSB - VISIBILITY
$$



USA.gov is the U.S. government's official web portal to all federal, state and local government web resources and services.